[TLELIST] Archives

 

[list_settings.list_name] Current TLEs

March 9th 2011 PST

HST 1 20580U 90037B 11066.14095758 .00000957 00000-0 60066-4 0 7235 2 20580 028.4714 322.9721 0003563 118.2685 241.8325 15.01188991944305 ISS (ZARYA) 1 25544U 98067A 11067.31515169 .00055992 00000-0 41233-3 0 9644 2 25544 051.6456 318.3018 0005498 044.5727 060.0288 15.72472312705020 CXO 1 25867U 99040B 11060.54166667 -.00000294 00000-0 00000+0 0 5776 2 25867 068.6277 038.7682 8512399 276.1596 355.9770 00.37805617 7362 ____________________________________________________________________ These 2-Line ...Continue Reading

[list_settings.list_name] Current TLEs

March 8th 2011 PST

HST 1 20580U 90037B 11066.14095758 .00000957 00000-0 60066-4 0 7235 2 20580 028.4714 322.9721 0003563 118.2685 241.8325 15.01188991944305 ISS (ZARYA) 1 25544U 98067A 11066.29736271 .00034595 00000-0 25862-3 0 9588 2 25544 051.6470 323.5125 0006418 039.7460 059.6021 15.72330151704860 CXO 1 25867U 99040B 11060.54166667 -.00000294 00000-0 00000+0 0 5776 2 25867 068.6277 038.7682 8512399 276.1596 355.9770 00.37805617 7362 ____________________________________________________________________ These 2-Line ...Continue Reading

[list_settings.list_name] Current TLEs

March 7th 2011 PST

HST 1 20580U 90037B 11065.14371517 .00000865 00000-0 53094-4 0 7224 2 20580 028.4712 329.4828 0003559 106.3950 253.7258 15.01186781944156 ISS (ZARYA) 1 25544U 98067A 11065.34489707 .00030910 00000-0 23232-3 0 9511 2 25544 051.6468 328.3895 0006563 036.0387 068.4691 15.72261497704714 CXO 1 25867U 99040B 11060.54166667 -.00000294 00000-0 00000+0 0 5776 2 25867 068.6277 038.7682 8512399 276.1596 355.9770 00.37805617 7362 ____________________________________________________________________ These 2-Line ...Continue Reading

[list_settings.list_name] Current TLEs

March 6th 2011 PST

HST 1 20580U 90037B 11062.21844846 .00000636 00000-0 35625-4 0 7214 2 20580 028.4712 348.5857 0003322 078.4021 281.6963 15.01181443943710 ISS (ZARYA) 1 25544U 98067A 11064.32686502 .00079238 00000-0 58581-3 0 9443 2 25544 051.6464 333.6036 0006425 032.8546 065.7042 15.72231618704558 CXO 1 25867U 99040B 11060.54166667 -.00000294 00000-0 00000+0 0 5776 2 25867 068.6277 038.7682 8512399 276.1596 355.9770 00.37805617 7362 ____________________________________________________________________ These 2-Line ...Continue Reading

[list_settings.list_name] Current TLEs

March 5th 2011 PST

HST 1 20580U 90037B 11062.21844846 .00000636 00000-0 35625-4 0 7214 2 20580 028.4712 348.5857 0003322 078.4021 281.6963 15.01181443943710 ISS (ZARYA) 1 25544U 98067A 11063.30891439 .00061412 00000-0 45753-3 0 9371 2 25544 051.6466 338.8163 0006286 028.7724 064.5156 15.72153649704397 CXO 1 25867U 99040B 11060.54166667 -.00000294 00000-0 00000+0 0 5776 2 25867 068.6277 038.7682 8512399 276.1596 355.9770 00.37805617 7362 ____________________________________________________________________ These 2-Line ...Continue Reading

[list_settings.list_name] Current TLEs

March 4th 2011 PST

HST 1 20580U 90037B 11062.21844846 .00000636 00000-0 35625-4 0 7214 2 20580 028.4712 348.5857 0003322 078.4021 281.6963 15.01181443943710 ISS (ZARYA) 1 25544U 98067A 11062.35637852 .00035563 00000-0 26184-3 0 9333 2 25544 051.6474 343.6922 0005494 032.3911 065.8039 15.72682833704242 CXO 1 25867U 99040B 11060.54166667 -.00000294 00000-0 00000+0 0 5776 2 25867 068.6277 038.7682 8512399 276.1596 355.9770 00.37805617 7362 ____________________________________________________________________ These 2-Line ...Continue Reading

[list_settings.list_name] Current TLEs

March 3rd 2011 PST

HST 1 20580U 90037B 11061.22119647 .00000618 00000-0 34267-4 0 7208 2 20580 028.4711 355.0964 0003328 067.6153 292.4787 15.01180340943565 ISS (ZARYA) 1 25544U 98067A 11061.40407683 .00009473 00000-0 73626-4 0 9262 2 25544 051.6465 348.5701 0005839 029.0875 073.9396 15.72570949704099 CXO 1 25867U 99040B 11060.54166667 -.00000294 00000-0 00000+0 0 5776 2 25867 068.6277 038.7682 8512399 276.1596 355.9770 00.37805617 7362 ____________________________________________________________________ These 2-Line ...Continue Reading

[list_settings.list_name] Current TLEs

March 2nd 2011 PST

HST 1 20580U 90037B 11058.29591506 +.00000671 +00000-0 +38357-4 0 07189 2 20580 028.4710 014.1986 0003210 036.5643 323.4911 15.01178011943128 ISS (ZARYA) 1 25544U 98067A 11059.94480917 .00003150 00000-0 27606-4 0 9183 2 25544 051.6462 356.0474 0005066 022.5301 093.7337 15.72510241703869 CXO 1 25867U 99040B 11060.54166667 -.00000294 00000-0 00000+0 0 5776 2 25867 068.6277 038.7682 8512399 276.1596 355.9770 00.37805617 7362 ____________________________________________________________________ These 2-Line ...Continue Reading

[list_settings.list_name] Current TLEs

March 1st 2011 PST

HST 1 20580U 90037B 11059.29317377 .00000633 00000-0 35434-4 0 7194 2 20580 028.4711 007.6874 0003200 047.2562 312.8287 15.01178715943275 ISS (ZARYA) 1 25544U 98067A 11059.43400623 .00013066 00000-0 10009-3 0 9144 2 25544 051.6469 358.6655 0005072 022.9879 079.6507 15.72500748703780 CXO 1 25867U 99040B 11057.91666667 -.00000514 00000-0 00000+0 0 5762 2 25867 068.6117 038.8977 8510580 276.1444 358.6637 00.37807171 7353 ____________________________________________________________________ These 2-Line ...Continue Reading

[list_settings.list_name] Current TLEs

February 28th 2011 PST

HST 1 20580U 90037B 11055.10470320 .00000915 00000-0 56921-4 0 7173 2 20580 028.4713 035.0381 0002994 359.4486 000.6204 15.01175986942645 ISS (ZARYA) 1 25544U 98067A 11058.36064080 -.00011523 00000-0 -80122-4 0 9083 2 25544 051.6456 004.1664 0004891 015.8190 126.4699 15.72450374703618 CXO 1 25867U 99040B 11057.91666667 -.00000514 00000-0 00000+0 0 5762 2 25867 068.6117 038.8977 8510580 276.1444 358.6637 00.37807171 7353 ____________________________________________________________________ These 2-Line ...Continue Reading
  • This mailing list is a public mailing list - anyone may join or leave, at any time.
  • This mailing list is announce-only.

International Space Station (ISS) / Hubble Space Telescope (HST) / Chandra X-Ray Observatory Orbital Data via EMAIL

Privacy Policy:

Private list